Date_Time,Julian_Date,Latitude,Longitude,Instrument_Depth,U,V,Speed,Direction
(yyyy-mm-dd hh:mn:ss UTC),(JD),(+ deg. North),(+ deg. East),(m),(cm/s),(cm/s),(cm/s),(deg True)
1993-01-16 00:00:00 UTC,2449003.500000,27.8153,-93.5322,0100,-11.29,-14.66,18.5035,217.6007
1993-01-16 00:30:00 UTC,2449003.520833,27.8153,-93.5322,0100,-10.62,-4.66,11.5974,246.3084
1993-01-16 01:00:00 UTC,2449003.541667,27.8153,-93.5322,0100,-9.72,-5.15,11.0000,242.0838
1993-01-16 01:30:00 UTC,2449003.562500,27.8153,-93.5322,0100,-11.51,-4.62,12.4026,248.1300
1993-01-16 02:00:00 UTC,2449003.583333,27.8153,-93.5322,0100,-10.58,-5.44,11.8966,242.7888
1993-01-16 02:30:00 UTC,2449003.604167,27.8153,-93.5322,0100,-11.74,-5.58,12.9986,244.5783
1993-01-16 03:00:00 UTC,2449003.625000,27.8153,-93.5322,0100,-11.47,-5.45,12.6990,244.5851
1993-01-16 03:30:00 UTC,2449003.645833,27.8153,-93.5322,0100,-10.33,-6.30,12.0995,238.6221
1993-01-16 04:00:00 UTC,2449003.666667,27.8153,-93.5322,0100,-10.93,-4.71,11.9016,246.6876
1993-01-16 04:30:00 UTC,2449003.687500,27.8153,-93.5322,0100,-10.23,-4.79,11.2959,244.9096
1993-01-16 05:00:00 UTC,2449003.708333,27.8153,-93.5322,0100,-9.62,-3.95,10.3994,247.6768
1993-01-16 05:30:00 UTC,2449003.729167,27.8153,-93.5322,0100,-7.81,-3.09,8.3991,248.4139
1993-01-16 06:00:00 UTC,2449003.750000,27.8153,-93.5322,0100,-7.18,-3.05,7.8010,246.9846
1993-01-16 06:30:00 UTC,2449003.770833,27.8153,-93.5322,0100,-3.66,-4.75,5.9965,217.6152
1993-01-16 07:00:00 UTC,2449003.791667,27.8153,-93.5322,0100,-3.50,-5.60,6.6038,212.0054
1993-01-16 07:30:00 UTC,2449003.812500,27.8153,-93.5322,0100,-5.05,-4.70,6.8987,227.0559
1993-01-16 08:00:00 UTC,2449003.833333,27.8153,-93.5322,0100,-5.78,-4.29,7.1981,233.4167
1993-01-16 08:30:00 UTC,2449003.854167,27.8153,-93.5322,0100,-4.25,-5.44,6.9033,217.9987
1993-01-16 09:00:00 UTC,2449003.875000,27.8153,-93.5322,0100,-5.30,-4.87,7.1977,227.4211
1993-01-16 09:30:00 UTC,2449003.895833,27.8153,-93.5322,0100,-7.14,-3.14,7.7999,246.2613
1993-01-16 10:00:00 UTC,2449003.916667,27.8153,-93.5322,0100,-5.57,-2.95,6.3030,242.0933
1993-01-16 10:30:00 UTC,2449003.937500,27.8153,-93.5322,0100,-6.78,-3.85,7.7969,240.4101
1993-01-16 11:00:00 UTC,2449003.958333,27.8153,-93.5322,0100,-8.13,-2.12,8.4019,255.3849
1993-01-16 11:30:00 UTC,2449003.979167,27.8153,-93.5322,0100,-8.35,-0.91,8.3994,263.7803
1993-01-16 12:00:00 UTC,2449004.000000,27.8153,-93.5322,0100,-7.43,-0.99,7.4957,262.4104
1993-01-16 12:30:00 UTC,2449004.020833,27.8153,-93.5322,0100,-7.11,-1.13,7.1992,260.9695
1993-01-16 13:00:00 UTC,2449004.041667,27.8153,-93.5322,0100,-7.28,-1.80,7.4992,256.1120
1993-01-16 13:30:00 UTC,2449004.062500,27.8153,-93.5322,0100,-8.39,-2.30,8.6995,254.6698
1993-01-16 14:00:00 UTC,2449004.083333,27.8153,-93.5322,0100,-9.10,-1.33,9.1967,261.6849
1993-01-16 14:30:00 UTC,2449004.104167,27.8153,-93.5322,0100,-8.90,-0.20,8.9022,268.7127
1993-01-16 15:00:00 UTC,2449004.125000,27.8153,-93.5322,0100,-9.48,0.60,9.4990,273.6215
1993-01-16 15:30:00 UTC,2449004.145833,27.8153,-93.5322,0100,-9.04,1.69,9.1966,280.5891
1993-01-16 16:00:00 UTC,2449004.166667,27.8153,-93.5322,0100,-8.17,1.95,8.3995,283.4241
1993-01-16 16:30:00 UTC,2449004.187500,27.8153,-93.5322,0100,-7.11,1.11,7.1961,278.8733
1993-01-16 17:00:00 UTC,2449004.208333,27.8153,-93.5322,0100,-5.08,-1.09,5.1956,257.8898
1993-01-16 17:30:00 UTC,2449004.229167,27.8153,-93.5322,0100,-4.87,-1.82,5.1990,249.5085
1993-01-16 18:00:00 UTC,2449004.250000,27.8153,-93.5322,0100,-5.57,-2.24,6.0035,248.0923
1993-01-16 18:30:00 UTC,2449004.270833,27.8153,-93.5322,0100,-5.15,-2.44,5.6988,244.6490
1993-01-16 19:00:00 UTC,2449004.291667,27.8153,-93.5322,0100,-3.15,-2.46,3.9968,232.0119
1993-01-16 19:30:00 UTC,2449004.312500,27.8153,-93.5322,0100,-4.78,-1.09,4.9027,257.1543
1993-01-16 20:00:00 UTC,2449004.333333,27.8153,-93.5322,0100,-5.70,0.08,5.7006,270.8041
1993-01-16 20:30:00 UTC,2449004.354167,27.8153,-93.5322,0100,-5.69,0.36,5.7014,273.6202
1993-01-16 21:00:00 UTC,2449004.375000,27.8153,-93.5322,0100,-5.19,0.36,5.2025,273.9679
1993-01-16 21:30:00 UTC,2449004.395833,27.8153,-93.5322,0100,-5.65,-0.75,5.6996,262.4386
1993-01-16 22:00:00 UTC,2449004.416667,27.8153,-93.5322,0100,-5.96,-2.03,6.2962,251.1909
1993-01-16 22:30:00 UTC,2449004.437500,27.8153,-93.5322,0100,-7.13,-0.99,7.1984,262.0950
1993-01-16 23:00:00 UTC,2449004.458333,27.8153,-93.5322,0100,-6.60,-0.15,6.6017,268.6981
1993-01-16 23:30:00 UTC,2449004.479167,27.8153,-93.5322,0100,-6.60,0.09,6.6006,270.7812
1993-01-17 00:00:00 UTC,2449004.500000,27.8153,-93.5322,0100,-5.66,0.68,5.7007,276.8508
1993-01-17 00:30:00 UTC,2449004.520833,27.8153,-93.5322,0100,-6.21,1.05,6.2981,279.5969
1993-01-17 01:00:00 UTC,2449004.541667,27.8153,-93.5322,0100,-7.48,0.52,7.4981,273.9767
1993-01-17 01:30:00 UTC,2449004.562500,27.8153,-93.5322,0100,-8.40,-0.13,8.4010,269.1133
1993-01-17 02:00:00 UTC,2449004.583333,27.8153,-93.5322,0100,-7.50,-0.21,7.5029,268.3961
1993-01-17 02:30:00 UTC,2449004.604167,27.8153,-93.5322,0100,-7.50,-0.26,7.5045,268.0146
1993-01-17 03:00:00 UTC,2449004.625000,27.8153,-93.5322,0100,-8.67,-0.67,8.6958,265.5811
1993-01-17 03:30:00 UTC,2449004.645833,27.8153,-93.5322,0100,-8.40,0.22,8.4029,271.5003
1993-01-17 04:00:00 UTC,2449004.666667,27.8153,-93.5322,0100,-8.02,-1.11,8.0964,262.1201
1993-01-17 04:30:00 UTC,2449004.687500,27.8153,-93.5322,0100,-6.48,-1.27,6.6033,258.9113
1993-01-17 05:00:00 UTC,2449004.708333,27.8153,-93.5322,0100,-6.60,0.14,6.6015,271.2152
1993-01-17 05:30:00 UTC,2449004.729167,27.8153,-93.5322,0100,-6.89,0.40,6.9016,273.3226
1993-01-17 06:00:00 UTC,2449004.750000,27.8153,-93.5322,0100,-7.92,-2.80,8.4004,250.5297
1993-01-17 06:30:00 UTC,2449004.770833,27.8153,-93.5322,0100,-8.17,-3.52,8.8960,246.6915
1993-01-17 07:00:00 UTC,2449004.791667,27.8153,-93.5322,0100,-7.83,-3.79,8.6990,244.1714
1993-01-17 07:30:00 UTC,2449004.812500,27.8153,-93.5322,0100,-7.95,-3.54,8.7025,245.9974
1993-01-17 08:00:00 UTC,2449004.833333,27.8153,-93.5322,0100,-7.56,-4.30,8.6973,240.3695
1993-01-17 08:30:00 UTC,2449004.854167,27.8153,-93.5322,0100,-7.81,-4.26,8.8963,241.3896
1993-01-17 09:00:00 UTC,2449004.875000,27.8153,-93.5322,0100,-7.00,-4.64,8.3982,236.4613
1993-01-17 09:30:00 UTC,2449004.895833,27.8153,-93.5322,0100,-7.70,-5.57,9.5034,234.1189
1993-01-17 10:00:00 UTC,2449004.916667,27.8153,-93.5322,0100,-8.13,-3.62,8.8995,245.9983
1993-01-17 10:30:00 UTC,2449004.937500,27.8153,-93.5322,0100,-9.07,-5.09,10.4006,240.6993
1993-01-17 11:00:00 UTC,2449004.958333,27.8153,-93.5322,0100,-8.64,-4.63,9.8024,241.8141
1993-01-17 11:30:00 UTC,2449004.979167,27.8153,-93.5322,0100,-9.72,-6.33,11.5995,236.9265
1993-01-17 12:00:00 UTC,2449005.000000,27.8153,-93.5322,0100,-12.51,-8.28,15.0019,236.5006
1993-01-17 12:30:00 UTC,2449005.020833,27.8153,-93.5322,0100,-14.10,-7.34,15.8961,242.5000
1993-01-17 13:00:00 UTC,2449005.041667,27.8153,-93.5322,0100,-14.74,-5.10,15.5974,250.9145
1993-01-17 13:30:00 UTC,2449005.062500,27.8153,-93.5322,0100,-14.10,-3.38,14.4995,256.5197
1993-01-17 14:00:00 UTC,2449005.083333,27.8153,-93.5322,0100,-12.81,-3.58,13.3008,254.3860
1993-01-17 14:30:00 UTC,2449005.104167,27.8153,-93.5322,0100,-12.46,-2.44,12.6967,258.9202
1993-01-17 15:00:00 UTC,2449005.125000,27.8153,-93.5322,0100,-12.34,-1.25,12.4031,264.2159
1993-01-17 15:30:00 UTC,2449005.145833,27.8153,-93.5322,0100,-12.97,0.82,12.9959,273.6176
1993-01-17 16:00:00 UTC,2449005.166667,27.8153,-93.5322,0100,-12.48,2.34,12.6975,280.6197
1993-01-17 16:30:00 UTC,2449005.187500,27.8153,-93.5322,0100,-11.79,2.74,12.1042,283.0833
1993-01-17 17:00:00 UTC,2449005.208333,27.8153,-93.5322,0100,-10.97,3.78,11.6030,289.0127
1993-01-17 17:30:00 UTC,2449005.229167,27.8153,-93.5322,0100,-6.70,3.37,7.4998,296.7017
1993-01-17 18:00:00 UTC,2449005.250000,27.8153,-93.5322,0100,-5.64,2.80,6.2968,296.4023
1993-01-17 18:30:00 UTC,2449005.270833,27.8153,-93.5322,0100,-6.31,1.92,6.5956,286.9239
1993-01-17 19:00:00 UTC,2449005.291667,27.8153,-93.5322,0100,-6.06,1.73,6.3021,285.9329
1993-01-17 19:30:00 UTC,2449005.312500,27.8153,-93.5322,0100,-6.14,1.43,6.3043,283.1104
1993-01-17 20:00:00 UTC,2449005.333333,27.8153,-93.5322,0100,-5.26,1.60,5.4980,286.9189
1993-01-17 20:30:00 UTC,2449005.354167,27.8153,-93.5322,0100,-5.90,1.07,5.9962,280.2792
1993-01-17 21:00:00 UTC,2449005.375000,27.8153,-93.5322,0100,-6.42,1.53,6.5998,283.4046
1993-01-17 21:30:00 UTC,2449005.395833,27.8153,-93.5322,0100,-6.07,2.60,6.6034,293.1872
1993-01-17 22:00:00 UTC,2449005.416667,27.8153,-93.5322,0100,-5.03,2.68,5.6994,298.0488
1993-01-17 22:30:00 UTC,2449005.437500,27.8153,-93.5322,0100,-4.80,3.08,5.7032,302.6870
1993-01-17 23:00:00 UTC,2449005.458333,27.8153,-93.5322,0100,-3.27,2.79,4.2985,310.4712
1993-01-17 23:30:00 UTC,2449005.479167,27.8153,-93.5322,0100,-2.64,2.14,3.3984,309.0284
1993-01-18 00:00:00 UTC,2449005.500000,27.8153,-93.5322,0100,-3.63,1.69,4.0041,294.9650
1993-01-18 00:30:00 UTC,2449005.520833,27.8153,-93.5322,0100,-3.58,1.78,3.9981,296.4369
1993-01-18 01:00:00 UTC,2449005.541667,27.8153,-93.5322,0100,-3.86,2.51,4.6043,303.0343
1993-01-18 01:30:00 UTC,2449005.562500,27.8153,-93.5322,0100,-3.35,3.15,4.5984,313.2376
1993-01-18 02:00:00 UTC,2449005.583333,27.8153,-93.5322,0100,-3.73,3.18,4.9016,310.4492
1993-01-18 02:30:00 UTC,2449005.604167,27.8153,-93.5322,0100,-3.88,2.99,4.8984,307.6185
1993-01-18 03:00:00 UTC,2449005.625000,27.8153,-93.5322,0100,-3.19,2.42,4.0041,307.1847
1993-01-18 03:30:00 UTC,2449005.645833,27.8153,-93.5322,0100,-2.68,1.56,3.1010,300.2032
1993-01-18 04:00:00 UTC,2449005.666667,27.8153,-93.5322,0100,-1.80,1.88,2.6028,316.2454
1993-01-18 04:30:00 UTC,2449005.687500,27.8153,-93.5322,0100,-1.27,2.27,2.6011,330.7742
1993-01-18 05:00:00 UTC,2449005.708333,27.8153,-93.5322,0100,-2.06,2.32,3.1026,318.3971
1993-01-18 05:30:00 UTC,2449005.729167,27.8153,-93.5322,0100,-2.09,2.29,3.1004,317.6144
1993-01-18 06:00:00 UTC,2449005.750000,27.8153,-93.5322,0100,-2.58,1.72,3.1008,303.6901
1993-01-18 06:30:00 UTC,2449005.770833,27.8153,-93.5322,0100,-2.55,0.50,2.5986,281.0937
1993-01-18 07:00:00 UTC,2449005.791667,27.8153,-93.5322,0100,1.92,-2.04,2.8014,136.7357
1993-01-18 07:30:00 UTC,2449005.812500,27.8153,-93.5322,0100,0.87,-4.21,4.2990,168.3241
1993-01-18 08:00:00 UTC,2449005.833333,27.8153,-93.5322,0100,-0.82,-4.22,4.2989,190.9963
1993-01-18 08:30:00 UTC,2449005.854167,27.8153,-93.5322,0100,-1.67,-5.24,5.4997,197.6772
1993-01-18 09:00:00 UTC,2449005.875000,27.8153,-93.5322,0100,-3.24,-5.40,6.2974,210.9638
1993-01-18 09:30:00 UTC,2449005.895833,27.8153,-93.5322,0100,-4.39,-5.70,7.1946,217.6026
1993-01-18 10:00:00 UTC,2449005.916667,27.8153,-93.5322,0100,-6.67,-6.76,9.4967,224.6161
1993-01-18 10:30:00 UTC,2449005.937500,27.8153,-93.5322,0100,-7.48,-7.22,10.3961,226.0133
1993-01-18 11:00:00 UTC,2449005.958333,27.8153,-93.5322,0100,-7.43,-6.84,10.0990,227.3676
1993-01-18 11:30:00 UTC,2449005.979167,27.8153,-93.5322,0100,-7.28,-5.63,9.2030,232.2834
1993-01-18 12:00:00 UTC,2449006.000000,27.8153,-93.5322,0100,-5.87,-5.59,8.1059,226.3996
1993-01-18 12:30:00 UTC,2449006.020833,27.8153,-93.5322,0100,-5.72,-6.56,8.7036,221.0868
1993-01-18 13:00:00 UTC,2449006.041667,27.8153,-93.5322,0100,-5.42,-4.74,7.2003,228.8291
1993-01-18 13:30:00 UTC,2449006.062500,27.8153,-93.5322,0100,-5.30,-4.42,6.9012,230.1732
1993-01-18 14:00:00 UTC,2449006.083333,27.8153,-93.5322,0100,-4.51,-3.49,5.7026,232.2660
1993-01-18 14:30:00 UTC,2449006.104167,27.8153,-93.5322,0100,-3.50,-1.93,3.9969,241.1264
1993-01-18 15:00:00 UTC,2449006.125000,27.8153,-93.5322,0100,-3.57,-1.80,3.9981,243.2427
1993-01-18 15:30:00 UTC,2449006.145833,27.8153,-93.5322,0100,-5.93,-2.90,6.6011,243.9396
1993-01-18 16:00:00 UTC,2449006.166667,27.8153,-93.5322,0100,-8.71,-2.96,9.1992,251.2302
1993-01-18 16:30:00 UTC,2449006.187500,27.8153,-93.5322,0100,-7.13,-2.33,7.5011,251.9032
1993-01-18 17:00:00 UTC,2449006.208333,27.8153,-93.5322,0100,-6.70,-1.66,6.9026,256.0845
1993-01-18 17:30:00 UTC,2449006.229167,27.8153,-93.5322,0100,-7.75,-0.84,7.7954,263.8140
1993-01-18 18:00:00 UTC,2449006.250000,27.8153,-93.5322,0100,-7.18,0.59,7.2042,274.6976
1993-01-18 18:30:00 UTC,2449006.270833,27.8153,-93.5322,0100,-5.73,1.78,6.0001,287.2572
1993-01-18 19:00:00 UTC,2449006.291667,27.8153,-93.5322,0100,-4.96,1.55,5.1965,287.3540
1993-01-18 19:30:00 UTC,2449006.312500,27.8153,-93.5322,0100,-2.63,0.96,2.7997,290.0530
1993-01-18 20:00:00 UTC,2449006.333333,27.8153,-93.5322,0100,-2.94,0.99,3.1022,288.6102
1993-01-18 20:30:00 UTC,2449006.354167,27.8153,-93.5322,0100,-2.94,0.99,3.1022,288.6102
1993-01-18 21:00:00 UTC,2449006.375000,27.8153,-93.5322,0100,-3.33,0.71,3.4048,282.0360
1993-01-18 21:30:00 UTC,2449006.395833,27.8153,-93.5322,0100,-4.52,3.14,5.5036,304.7873
1993-01-18 22:00:00 UTC,2449006.416667,27.8153,-93.5322,0100,-4.19,2.55,4.9050,301.3243
1993-01-18 22:30:00 UTC,2449006.437500,27.8153,-93.5322,0100,-2.92,2.27,3.6986,307.8614
1993-01-18 23:00:00 UTC,2449006.458333,27.8153,-93.5322,0100,-2.75,2.48,3.7031,312.0447
1993-01-18 23:30:00 UTC,2449006.479167,27.8153,-93.5322,0100,-2.59,1.71,3.1036,303.4341
1993-01-19 00:00:00 UTC,2449006.500000,27.8153,-93.5322,0100,-1.99,0.17,1.9972,274.8828
1993-01-19 00:30:00 UTC,2449006.520833,27.8153,-93.5322,0100,-1.94,-0.47,1.9961,256.3815
1993-01-19 01:00:00 UTC,2449006.541667,27.8153,-93.5322,0100,0.06,-1.10,1.1016,176.8779
1993-01-19 01:30:00 UTC,2449006.562500,27.8153,-93.5322,0100,-0.54,-1.29,1.3985,202.7144
1993-01-19 02:00:00 UTC,2449006.583333,27.8153,-93.5322,0100,-1.50,-0.80,1.7000,241.9275
1993-01-19 02:30:00 UTC,2449006.604167,27.8153,-93.5322,0100,-1.96,0.42,2.0045,282.0948
1993-01-19 03:00:00 UTC,2449006.625000,27.8153,-93.5322,0100,-1.95,-0.46,2.0035,256.7267
1993-01-19 03:30:00 UTC,2449006.645833,27.8153,-93.5322,0100,-1.80,-0.87,1.9992,244.2040
1993-01-19 04:00:00 UTC,2449006.666667,27.8153,-93.5322,0100,-1.69,-1.07,2.0002,237.6606
1993-01-19 04:30:00 UTC,2449006.687500,27.8153,-93.5322,0100,-1.19,-1.22,1.7043,224.2868
1993-01-19 05:00:00 UTC,2449006.708333,27.8153,-93.5322,0100,0.72,-1.86,1.9945,158.8387
1993-01-19 05:30:00 UTC,2449006.729167,27.8153,-93.5322,0100,1.23,-1.94,2.2971,147.6245
1993-01-19 06:00:00 UTC,2449006.750000,27.8153,-93.5322,0100,1.09,-2.03,2.3041,151.7666
1993-01-19 06:30:00 UTC,2449006.770833,27.8153,-93.5322,0100,0.40,-1.96,2.0004,168.4654
1993-01-19 07:00:00 UTC,2449006.791667,27.8153,-93.5322,0100,0.28,-1.68,1.7032,170.5377
1993-01-19 07:30:00 UTC,2449006.812500,27.8153,-93.5322,0100,0.23,-1.99,2.0032,173.4071
1993-01-19 08:00:00 UTC,2449006.833333,27.8153,-93.5322,0100,0.26,-1.98,1.9970,172.5191
1993-01-19 08:30:00 UTC,2449006.854167,27.8153,-93.5322,0100,0.34,-2.58,2.6023,172.4926
1993-01-19 09:00:00 UTC,2449006.875000,27.8153,-93.5322,0100,0.19,-2.29,2.2979,175.2571
1993-01-19 09:30:00 UTC,2449006.895833,27.8153,-93.5322,0100,-0.21,-3.99,3.9955,183.0128
1993-01-19 10:00:00 UTC,2449006.916667,27.8153,-93.5322,0100,-1.26,-5.56,5.7010,192.7686
1993-01-19 10:30:00 UTC,2449006.937500,27.8153,-93.5322,0100,-1.86,-6.65,6.9052,195.6263
1993-01-19 11:00:00 UTC,2449006.958333,27.8153,-93.5322,0100,-2.26,-4.35,4.9021,207.4537
1993-01-19 11:30:00 UTC,2449006.979167,27.8153,-93.5322,0100,-2.30,-3.63,4.2973,212.3587
1993-01-19 12:00:00 UTC,2449007.000000,27.8153,-93.5322,0100,-1.57,-5.79,5.9991,195.1714
1993-01-19 12:30:00 UTC,2449007.020833,27.8153,-93.5322,0100,-2.01,-7.54,7.8033,194.9267
1993-01-19 13:00:00 UTC,2449007.041667,27.8153,-93.5322,0100,-2.89,-7.89,8.4026,200.1171
1993-01-19 13:30:00 UTC,2449007.062500,27.8153,-93.5322,0100,-4.65,-9.97,11.0011,205.0043
1993-01-19 14:00:00 UTC,2449007.083333,27.8153,-93.5322,0100,-5.13,-9.73,10.9995,207.7998
1993-01-19 14:30:00 UTC,2449007.104167,27.8153,-93.5322,0100,-6.11,-10.45,12.1051,210.3144
1993-01-19 15:00:00 UTC,2449007.125000,27.8153,-93.5322,0100,-5.66,-7.63,9.5001,216.5684
1993-01-19 15:30:00 UTC,2449007.145833,27.8153,-93.5322,0100,-6.45,-6.14,8.9052,226.4105
1993-01-19 16:00:00 UTC,2449007.166667,27.8153,-93.5322,0100,-7.65,-2.65,8.0960,250.8936
1993-01-19 16:30:00 UTC,2449007.187500,27.8153,-93.5322,0100,-7.49,-0.44,7.5029,266.6380
1993-01-19 17:00:00 UTC,2449007.208333,27.8153,-93.5322,0100,-8.00,1.25,8.0971,278.8807
1993-01-19 17:30:00 UTC,2449007.229167,27.8153,-93.5322,0100,-9.33,3.87,10.1008,292.5282
1993-01-19 18:00:00 UTC,2449007.250000,27.8153,-93.5322,0100,-8.29,7.23,10.9999,311.0928
1993-01-19 18:30:00 UTC,2449007.270833,27.8153,-93.5322,0100,-6.23,8.70,10.7006,324.3939
1993-01-19 19:00:00 UTC,2449007.291667,27.8153,-93.5322,0100,-4.92,10.84,11.9043,335.5879
1993-01-19 19:30:00 UTC,2449007.312500,27.8153,-93.5322,0100,-2.93,9.35,9.7983,342.6006
1993-01-19 20:00:00 UTC,2449007.333333,27.8153,-93.5322,0100,-1.66,6.39,6.6021,345.4375
1993-01-19 20:30:00 UTC,2449007.354167,27.8153,-93.5322,0100,-0.61,2.73,2.7973,347.4045
1993-01-19 21:00:00 UTC,2449007.375000,27.8153,-93.5322,0100,0.17,2.80,2.8052,3.4744
1993-01-19 21:30:00 UTC,2449007.395833,27.8153,-93.5322,0100,1.08,4.16,4.2979,14.5536
1993-01-19 22:00:00 UTC,2449007.416667,27.8153,-93.5322,0100,0.67,3.64,3.7011,10.4295
1993-01-19 22:30:00 UTC,2449007.437500,27.8153,-93.5322,0100,0.98,3.57,3.7021,15.3501
1993-01-19 23:00:00 UTC,2449007.458333,27.8153,-93.5322,0100,1.74,4.90,5.1998,19.5501
1993-01-19 23:30:00 UTC,2449007.479167,27.8153,-93.5322,0100,-0.61,2.22,2.3023,344.6357
1993-01-20 00:00:00 UTC,2449007.500000,27.8153,-93.5322,0100,-1.91,-0.58,1.9961,253.1083
1993-01-20 00:30:00 UTC,2449007.520833,27.8153,-93.5322,0100,-0.90,-1.79,2.0035,206.6930
1993-01-20 01:00:00 UTC,2449007.541667,27.8153,-93.5322,0100,0.02,-2.00,2.0001,179.4270
1993-01-20 01:30:00 UTC,2449007.562500,27.8153,-93.5322,0100,7.77,-0.69,7.8006,95.0747
1993-01-20 02:00:00 UTC,2449007.583333,27.8153,-93.5322,0100,8.82,-1.18,8.8986,97.6202
1993-01-20 02:30:00 UTC,2449007.604167,27.8153,-93.5322,0100,8.79,-1.39,8.8992,98.9860
1993-01-20 03:00:00 UTC,2449007.625000,27.8153,-93.5322,0100,7.40,-2.46,7.7982,108.3885
1993-01-20 03:30:00 UTC,2449007.645833,27.8153,-93.5322,0100,5.46,-2.48,5.9968,114.4281
1993-01-20 04:00:00 UTC,2449007.666667,27.8153,-93.5322,0100,3.10,-2.52,3.9950,129.1078
1993-01-20 04:30:00 UTC,2449007.687500,27.8153,-93.5322,0100,3.11,-3.39,4.6005,137.4666
1993-01-20 05:00:00 UTC,2449007.708333,27.8153,-93.5322,0100,2.94,-3.54,4.6017,140.2901
1993-01-20 05:30:00 UTC,2449007.729167,27.8153,-93.5322,0100,1.60,-3.67,4.0036,156.4444
1993-01-20 06:00:00 UTC,2449007.750000,27.8153,-93.5322,0100,1.73,-4.90,5.1964,160.5538
1993-01-20 06:30:00 UTC,2449007.770833,27.8153,-93.5322,0100,1.54,-6.42,6.6021,166.5110
1993-01-20 07:00:00 UTC,2449007.791667,27.8153,-93.5322,0100,1.20,-6.80,6.9051,169.9920
1993-01-20 07:30:00 UTC,2449007.812500,27.8153,-93.5322,0100,0.59,-6.27,6.2977,174.6243
1993-01-20 08:00:00 UTC,2449007.833333,27.8153,-93.5322,0100,0.06,-7.20,7.2002,179.5225
1993-01-20 08:30:00 UTC,2449007.854167,27.8153,-93.5322,0100,-0.65,-6.87,6.9007,185.4049
1993-01-20 09:00:00 UTC,2449007.875000,27.8153,-93.5322,0100,-2.40,-7.10,7.4947,198.6767
1993-01-20 09:30:00 UTC,2449007.895833,27.8153,-93.5322,0100,-3.25,-8.07,8.6999,201.9359
1993-01-20 10:00:00 UTC,2449007.916667,27.8153,-93.5322,0100,-3.66,-9.09,9.7992,201.9317
1993-01-20 10:30:00 UTC,2449007.937500,27.8153,-93.5322,0100,-3.60,-7.26,8.1036,206.3753
1993-01-20 11:00:00 UTC,2449007.958333,27.8153,-93.5322,0100,-3.19,-6.12,6.9015,207.5304
1993-01-20 11:30:00 UTC,2449007.979167,27.8153,-93.5322,0100,-3.60,-5.53,6.5986,213.0639
1993-01-20 12:00:00 UTC,2449008.000000,27.8153,-93.5322,0100,-4.00,-4.47,5.9984,221.8239
1993-01-20 12:30:00 UTC,2449008.020833,27.8153,-93.5322,0100,-5.27,-3.97,6.5980,233.0085
1993-01-20 13:00:00 UTC,2449008.041667,27.8153,-93.5322,0100,-6.39,-1.66,6.6021,255.4375
1993-01-20 13:30:00 UTC,2449008.062500,27.8153,-93.5322,0100,-7.43,-1.03,7.5011,262.1075
1993-01-20 14:00:00 UTC,2449008.083333,27.8153,-93.5322,0100,-6.78,-1.28,6.8998,259.3089
1993-01-20 14:30:00 UTC,2449008.104167,27.8153,-93.5322,0100,-7.15,-0.86,7.2015,263.1414
1993-01-20 15:00:00 UTC,2449008.125000,27.8153,-93.5322,0100,-8.33,1.10,8.4023,277.5226
1993-01-20 15:30:00 UTC,2449008.145833,27.8153,-93.5322,0100,-7.37,2.54,7.7954,289.0160
1993-01-20 16:00:00 UTC,2449008.166667,27.8153,-93.5322,0100,-6.56,2.96,7.1969,294.2858
1993-01-20 16:30:00 UTC,2449008.187500,27.8153,-93.5322,0100,-5.26,3.99,6.6021,307.1823
1993-01-20 17:00:00 UTC,2449008.208333,27.8153,-93.5322,0100,-5.94,5.06,7.8030,310.4261
1993-01-20 17:30:00 UTC,2449008.229167,27.8153,-93.5322,0100,-6.94,6.92,9.8005,314.9173
1993-01-20 18:00:00 UTC,2449008.250000,27.8153,-93.5322,0100,-5.91,6.66,8.9041,318.4146
1993-01-20 18:30:00 UTC,2449008.270833,27.8153,-93.5322,0100,-5.27,7.17,8.8984,323.6839
1993-01-20 19:00:00 UTC,2449008.291667,27.8153,-93.5322,0100,-6.02,10.26,11.8957,329.5980
1993-01-20 19:30:00 UTC,2449008.312500,27.8153,-93.5322,0100,-4.92,10.17,11.2976,334.1834
1993-01-20 20:00:00 UTC,2449008.333333,27.8153,-93.5322,0100,-2.81,10.01,10.3969,344.3195
1993-01-20 20:30:00 UTC,2449008.354167,27.8153,-93.5322,0100,-0.02,11.00,11.0000,359.8958
1993-01-20 21:00:00 UTC,2449008.375000,27.8153,-93.5322,0100,-0.19,10.10,10.1018,358.9223
1993-01-20 21:30:00 UTC,2449008.395833,27.8153,-93.5322,0100,1.12,5.89,5.9955,10.7664
1993-01-20 22:00:00 UTC,2449008.416667,27.8153,-93.5322,0100,1.09,4.78,4.9027,12.8457
1993-01-20 22:30:00 UTC,2449008.437500,27.8153,-93.5322,0100,3.77,3.58,5.1990,46.4808
1993-01-20 23:00:00 UTC,2449008.458333,27.8153,-93.5322,0100,3.63,1.69,4.0041,65.0350
1993-01-20 23:30:00 UTC,2449008.479167,27.8153,-93.5322,0100,5.39,-1.09,5.4991,101.4325
1993-01-21 00:00:00 UTC,2449008.500000,27.8153,-93.5322,0100,5.18,-2.38,5.7006,114.6769
1993-01-21 00:30:00 UTC,2449008.520833,27.8153,-93.5322,0100,4.78,-4.55,6.5993,133.5878
1993-01-21 01:00:00 UTC,2449008.541667,27.8153,-93.5322,0100,3.94,-5.67,6.9045,145.2051
1993-01-21 01:30:00 UTC,2449008.562500,27.8153,-93.5322,0100,3.51,-5.94,6.8995,149.4208
1993-01-21 02:00:00 UTC,2449008.583333,27.8153,-93.5322,0100,3.05,-5.85,6.5973,152.4639
1993-01-21 02:30:00 UTC,2449008.604167,27.8153,-93.5322,0100,2.49,-5.79,6.3027,156.7298
1993-01-21 03:00:00 UTC,2449008.625000,27.8153,-93.5322,0100,1.78,-5.73,6.0001,162.7428
1993-01-21 03:30:00 UTC,2449008.645833,27.8153,-93.5322,0100,2.08,-5.09,5.4986,157.7729
1993-01-21 04:00:00 UTC,2449008.666667,27.8153,-93.5322,0100,1.40,-4.70,4.9041,163.4126
1993-01-21 04:30:00 UTC,2449008.687500,27.8153,-93.5322,0100,0.54,-4.57,4.6018,173.2611
1993-01-21 05:00:00 UTC,2449008.708333,27.8153,-93.5322,0100,-0.28,-4.29,4.2991,183.7343
1993-01-21 05:30:00 UTC,2449008.729167,27.8153,-93.5322,0100,-1.28,-5.04,5.2000,194.2500
1993-01-21 06:00:00 UTC,2449008.750000,27.8153,-93.5322,0100,-2.02,-4.79,5.1985,202.8657
1993-01-21 06:30:00 UTC,2449008.770833,27.8153,-93.5322,0100,-2.21,-4.37,4.8970,206.8267
1993-01-21 07:00:00 UTC,2449008.791667,27.8153,-93.5322,0100,-2.50,-3.50,4.3012,215.5377
1993-01-21 07:30:00 UTC,2449008.812500,27.8153,-93.5322,0100,-2.78,-4.75,5.5037,210.3389
1993-01-21 08:00:00 UTC,2449008.833333,27.8153,-93.5322,0100,-3.66,-5.85,6.9006,212.0318
1993-01-21 08:30:00 UTC,2449008.854167,27.8153,-93.5322,0100,-2.89,-3.19,4.3044,222.1752
1993-01-21 09:00:00 UTC,2449008.875000,27.8153,-93.5322,0100,-3.34,-2.71,4.3011,230.9449
1993-01-21 09:30:00 UTC,2449008.895833,27.8153,-93.5322,0100,-2.79,-1.35,3.0995,244.1790
1993-01-21 10:00:00 UTC,2449008.916667,27.8153,-93.5322,0100,-3.30,-2.27,4.0054,235.4767
1993-01-21 10:30:00 UTC,2449008.937500,27.8153,-93.5322,0100,-3.63,-2.30,4.2973,237.6413
1993-01-21 11:00:00 UTC,2449008.958333,27.8153,-93.5322,0100,-3.88,-2.46,4.5941,237.6245
1993-01-21 11:30:00 UTC,2449008.979167,27.8153,-93.5322,0100,-5.53,-3.02,6.3009,241.3605
1993-01-21 12:00:00 UTC,2449009.000000,27.8153,-93.5322,0100,-5.62,-2.10,5.9995,249.5110
1993-01-21 12:30:00 UTC,2449009.020833,27.8153,-93.5322,0100,-5.48,-2.44,5.9987,245.9987
1993-01-21 13:00:00 UTC,2449009.041667,27.8153,-93.5322,0100,-4.19,-0.98,4.3031,256.8357
1993-01-21 13:30:00 UTC,2449009.062500,27.8153,-93.5322,0100,-3.65,-0.58,3.6958,260.9709